Terminal Aerodrome Forecast
Issued by NWS

Home | Current Version | Previous Version | Graphics & Text | Print | Product List | Glossary On
Versions: 1 2 3 4 5 6 7 8 9 10 11 12 13 14 15 16 17 18 19 20 21 22
000
FTUS43 KBIS 182300
TAFMOT
TAF
KMOT 182325Z 1900/1924 18014G22KT P6SM SCT200 OVC250
     FM190300 19012G17KT P6SM VCSH BKN140 OVC200
     FM190700 22010KT P6SM VCSH BKN100
     FM191400 26011KT P6SM SCT150
     FM191800 28017G26KT P6SM SCT050=

USA.gov is the U.S. government's official web portal to all federal, state and local government web resources and services.